Home   Weather   Tegucigalpa   Past weeks

Flag for Honduras Past Weather in Tegucigalpa, Honduras — Yesterday and Last 2 Weeks

Now
77 °F

Partly sunny.


Feels Like: 79 °F
Forecast: N/A
Wind: 10 mph from East

Location: Tegucigalpa Airport

Current Time: Jan 16, 2017 at 4:02:19 pm

Latest Report: Jan 16, 2017 at 3:00 pm


Visibility: N/A

Pressure: 30.04 "Hg (26.62 "Hg at 1054m altitude)

Humidity: 51%

Dew Point: 57 °F

Location of TegucigalpaLocation

Past Weather in Tegucigalpa — Graph

°F

Tegucigalpa Temperature Yesterday

Maximum temperature yesterday: 82 °F (at 1:00 am)
Minimum temperature yesterday: 59 °F (at 10:00 pm)
Average temperature yesterday: 68 °F

High & Low Weather Summary for the Past Weeks

 TemperatureHumidityPressure
High84 °F (Jan 5, 2:00 pm)100% (Jan 2, 2:00 am)30.33 "Hg (Jan 2, 2:00 am)
Low54 °F (Jan 3, 6:00 am)32% (Jan 14, 3:00 pm)29.98 "Hg (Jan 4, 3:00 pm)
Average68 °F74%30.13 "Hg
* Reported Jan 1 2:00 pm — Jan 16 2:00 pm, Tegucigalpa, Weather by CustomWeather, © 2017

Note: Actual official high and low records may vary slightly from our data, if they occured in-between our weather recording intervals... More about our weather records

Advertising

Tegucigalpa Weather History for the Previous 24 Hours

Scroll right to see more
 ConditionsComfort  
Time TempWeatherWind HumidityBarometerVisibility
2:00 pm
Mon, Jan 16
77 °FPartly sunny.9 mph47%30.07 "HgN/A
1:00 pm77 °FPartly sunny.9 mph47%30.09 "HgN/A
12:00 pm77 °FPartly sunny.12 mph47%30.12 "HgN/A
11:00 am77 °FScattered clouds.6 mph47%30.15 "HgN/A
10:00 am73 °FScattered clouds.12 mph53%30.15 "HgN/A
9:00 am68 °FScattered clouds.No wind73%30.15 "HgN/A
8:00 am63 °FScattered clouds.No wind88%30.15 "HgN/A
7:00 am59 °FScattered clouds.No wind94%30.12 "HgN/A
6:00 am61 °FPartly cloudy.No wind94%30.09 "HgN/A
5:00 am61 °FPassing clouds.No wind94%30.09 "HgN/A
4:00 am59 °FPartly cloudy.No wind94%30.09 "HgN/A
3:00 am59 °FPartly cloudy.No wind94%30.09 "HgN/A
2:00 am59 °FCool.No wind88%30.09 "HgN/A
1:00 am57 °FPassing clouds.No wind94%30.09 "HgN/A
12:00 am55 °FPassing clouds.No wind94%30.12 "HgN/A
10:00 pm
Sun, Jan 15
59 °FPassing clouds.No wind88%30.12 "HgN/A
9:00 pm63 °FPassing clouds.6 mph77%30.12 "HgN/A
8:00 pm63 °FPassing clouds.No wind77%30.12 "HgN/A
7:00 pm66 °FPassing clouds.7 mph68%30.09 "HgN/A
6:00 pm70 °FPassing clouds.5 mph60%30.07 "HgN/A
5:00 pm73 °FPassing clouds.7 mph53%30.04 "HgN/A
4:00 pm73 °FScattered clouds.5 mph53%30.04 "HgN/A
Weather by CustomWeather, © 2017

See weather overviewHow to use our weather pages